FW6381 Weather Reports


Display with metric or nautical units.
time (UTC)temp
F
wind
direction
speed
MPH
gust
MPH
rain 1hr
in
rain 24hr
in
rain mn
in
humidity
%
barometer
mb
20260508111003 42 269 2.0 9.0 0.02 0.12 0.06 92 1012.3
20260508110714 42 266 1.0 4.0 0.01 0.10 0.05 92 1012.2
20260508110213 42 265 1.0 4.0 0.01 0.09 0.03 92 1012.2
20260508105714 41 265 1.0 4.0 0.02 0.09 0.03 92 1011.9
20260508105003 41 265 1.0 3.0 0.02 0.09 0.03 92 1011.8
20260508104714 41 265 0.0 3.0 0.02 0.09 0.03 92 1011.6
20260508104003 41 265 1.0 5.0 0.02 0.09 0.03 91 1011.6
20260508103716 42 265 1.0 5.0 0.02 0.09 0.03 91 1011.6
20260508103213 42 263 2.0 8.0 0.02 0.09 0.03 91 1011.6
20260508102505 42 262 3.0 8.0 0.02 0.09 0.03 91 1011.8
20260508102003 42 263 4.0 12.0 0.02 0.09 0.03 92 1011.5
20260508101504 42 252 5.0 12.0 0.02 0.09 0.03 92 1011.5
20260508101003 42 238 4.0 12.0 0.02 0.09 0.03 92 1011.5
20260508100503 42 234 2.0 12.0 0.01 0.08 0.02 93 1011.4
20260508100003 42 238 0.0 3.0 0.01 0.08 0.02 93 1011.4
20260508095714 42 0 0.0 0.0 0.00 0.07 0.01 93 1011.4
20260508095003 43 0 0.0 0.0 0.00 0.07 0.01 93 1011.4
20260508094714 43 0 0.0 0.0 0.00 0.07 0.01 93 1011.4
20260508094003 42 238 0.0 1.0 0.00 0.07 0.01 93 1011.2
20260508093503 42 238 1.0 3.0 0.00 0.07 0.01 93 1011.2
20260508093003 43 238 0.0 3.0 0.00 0.07 0.01 93 1011.1
20260508092503 43 238 1.0 3.0 0.00 0.07 0.01 93 1011.4
20260508092005 43 238 2.0 4.0 0.00 0.07 0.01 94 1011.5
20260508091503 43 238 1.0 4.0 0.00 0.07 0.01 94 1011.4
20260508091005 43 238 0.0 4.0 0.00 0.07 0.01 94 1011.3
20260508090503 43 237 1.0 6.0 0.00 0.07 0.01 94 1011.2
20260508090003 43 236 2.0 6.0 0.00 0.07 0.01 94 1011.2
20260508085503 43 230 2.0 6.0 0.00 0.07 0.01 94 1011.4
20260508085004 43 228 2.0 6.0 0.00 0.07 0.01 95 1011.6
20260508084504 43 223 2.0 6.0 0.00 0.07 0.01 95 1011.5
20260508084214 43 222 2.0 6.0 0.00 0.07 0.01 95 1011.4
20260508083505 43 228 4.0 13.0 0.00 0.07 0.01 95 1011.6
20260508083003 43 229 5.0 14.0 0.00 0.07 0.01 95 1011.7
20260508082503 43 222 5.0 13.0 0.00 0.07 0.01 96 1011.7
20260508082003 43 222 5.0 10.0 0.00 0.07 0.01 96 1011.8
20260508081503 43 229 5.0 12.0 0.00 0.07 0.01 96 1011.8
20260508081003 43 229 5.0 12.0 0.00 0.07 0.01 96 1011.7
20260508080504 43 225 4.0 12.0 0.00 0.07 0.01 96 1011.6
20260508080214 43 220 4.0 9.0 0.00 0.07 0.01 96 1011.6
20260508075503 42 205 3.0 8.0 0.00 0.07 0.01 96 1011.6
20260508075214 42 206 3.0 8.0 0.00 0.07 0.01 96 1011.6
20260508074504 42 207 3.0 8.0 0.00 0.07 0.01 96 1011.6
20260508074005 42 205 2.0 8.0 0.00 0.07 0.01 96 1011.6
20260508073503 42 203 2.0 6.0 0.00 0.07 0.01 96 1011.7
20260508073214 42 202 3.0 5.0 0.00 0.07 0.01 96 1011.6
20260508072503 42 194 2.0 8.0 0.00 0.07 0.01 96 1011.7
20260508072004 42 189 2.0 5.0 0.00 0.07 0.01 96 1011.7
20260508071503 42 188 1.0 5.0 0.00 0.07 0.01 96 1011.5
20260508071004 42 188 2.0 5.0 0.00 0.07 0.01 96 1011.6
20260508070713 42 188 2.0 5.0 0.00 0.07 0.01 96 1011.6
20260508070004 42 187 2.0 5.0 0.00 0.07 0.01 96 1011.7
20260508065505 42 186 3.0 5.0 0.00 0.07 0.01 96 1011.7
20260508065006 42 163 3.0 6.0 0.00 0.07 0.01 96 1011.8
20260508064503 41 122 3.0 6.0 0.00 0.07 0.01 96 1011.8
20260508064215 41 109 3.0 5.0 0.00 0.07 0.01 96 1011.8
20260508063505 41 99 2.0 5.0 0.00 0.07 0.01 95 1011.8
20260508063213 41 96 2.0 5.0 0.00 0.07 0.01 95 1011.8
20260508062503 41 85 2.0 5.0 0.00 0.07 0.01 95 1011.8
20260508062003 40 79 2.0 4.0 0.00 0.07 0.01 95 1011.8
20260508061503 40 76 1.0 4.0 0.01 0.07 0.01 95 1011.8
20260508061003 40 75 1.0 4.0 0.01 0.07 0.01 95 1011.9
20260508060505 40 73 1.0 4.0 0.01 0.07 0.01 95 1011.9
20260508060005 40 73 1.0 4.0 0.01 0.07 0.01 95 1011.9
20260508055504 40 72 1.0 4.0 0.01 0.07 0.01 95 1011.9
20260508055003 40 72 1.0 3.0 0.01 0.07 0.01 95 1011.6
20260508054503 40 72 0.0 3.0 0.01 0.07 0.01 95 1011.9
20260508054003 39 72 1.0 3.0 0.01 0.07 0.01 95 1012.0
20260508053503 39 70 2.0 5.0 0.01 0.07 0.01 95 1012.1
20260508053213 39 60 2.0 5.0 0.01 0.07 0.01 95 1012.1
20260508052504 39 8 1.0 5.0 0.01 0.07 0.01 94 1011.8
20260508052213 38 347 0.0 5.0 0.01 0.07 0.01 94 1012.0
20260508051503 38 0 0.0 0.0 0.00 0.06 0.00 94 1012.1
20260508051006 38 0 0.0 0.0 0.00 0.06 0.00 94 1012.0
20260508050503 38 0 0.0 0.0 0.00 0.06 0.00 94 1012.0
20260508050003 39 0 0.0 0.0 0.00 0.06 0.00 93 1012.1
20260508045505 39 0 0.0 0.0 0.00 0.06 0.00 94 1012.3
20260508045003 39 0 0.0 0.0 0.00 0.06 0.00 93 1012.3
20260508044505 39 0 0.0 0.0 0.00 0.06 0.00 93 1012.3
20260508044212 39 0 0.0 0.0 0.00 0.06 0.00 93 1012.3
20260508043503 39 0 0.0 0.0 0.00 0.06 0.00 93 1012.2
20260508043006 39 0 0.0 0.0 0.00 0.06 0.00 93 1012.3
20260508042503 40 0 0.0 0.0 0.00 0.06 0.00 93 1012.2
20260508042003 40 0 0.0 0.0 0.00 0.06 0.00 93 1012.2
20260508041505 40 0 0.0 0.0 0.00 0.06 0.00 93 1012.3
20260508041003 40 0 0.0 0.0 0.00 0.06 0.00 93 1012.2
20260508040503 40 0 0.0 0.0 0.00 0.06 0.00 93 1012.2
20260508040004 40 0 0.0 0.0 0.00 0.06 0.00 93 1012.2
20260508035505 40 346 0.0 3.0 0.00 0.06 0.06 93 1012.2
20260508035003 40 346 1.0 4.0 0.00 0.06 0.06 93 1012.2
20260508034503 40 346 1.0 4.0 0.00 0.06 0.06 93 1012.3
20260508034003 41 346 0.0 1.0 0.00 0.06 0.06 93 1012.3
20260508033713 41 0 0.0 0.0 0.00 0.06 0.06 93 1012.3
20260508033003 41 0 0.0 0.0 0.00 0.06 0.06 93 1012.3
20260508032503 41 0 0.0 0.0 0.00 0.06 0.06 92 1012.3
20260508032003 41 0 0.0 0.0 0.00 0.06 0.06 92 1012.4
20260508031503 42 0 0.0 0.0 0.00 0.06 0.06 92 1012.2
20260508031005 42 0 0.0 0.0 0.00 0.06 0.06 92 1012.2
20260508030503 42 0 0.0 0.0 0.00 0.06 0.06 92 1012.1
20260508030003 42 0 0.0 0.0 0.00 0.06 0.06 92 1012.1
20260508025503 42 0 0.0 0.0 0.00 0.06 0.06 92 1012.1
20260508025003 42 0 0.0 0.0 0.01 0.06 0.06 92 1012.0
20260508024503 42 0 0.0 0.0 0.02 0.06 0.06 92 1012.0
20260508024003 43 0 0.0 0.0 0.02 0.06 0.06 92 1012.1
20260508023503 42 346 0.0 1.0 0.02 0.06 0.06 92 1012.0
20260508023003 42 346 0.0 1.0 0.02 0.06 0.06 92 1012.0
20260508022503 42 346 1.0 5.0 0.02 0.06 0.06 92 1012.0
20260508022003 43 346 3.0 10.0 0.03 0.06 0.06 92 1011.9
20260508021715 43 347 4.0 10.0 0.05 0.06 0.06 92 1011.9
20260508021005 43 340 4.0 10.0 0.05 0.06 0.06 91 1011.9
20260508020503 43 331 4.0 10.0 0.06 0.06 0.06 91 1012.0
20260508020003 43 323 4.0 10.0 0.06 0.06 0.06 91 1012.1
20260508015715 43 320 3.0 10.0 0.06 0.06 0.06 91 1012.1
20260508015003 43 322 3.0 8.0 0.05 0.05 0.05 90 1012.1
20260508014503 43 325 3.0 10.0 0.03 0.03 0.03 90 1012.2
20260508014005 43 328 3.0 10.0 0.03 0.03 0.03 89 1012.1
20260508013503 43 327 3.0 10.0 0.03 0.03 0.03 89 1012.1
20260508013005 43 311 4.0 13.0 0.03 0.03 0.03 88 1011.9
20260508012505 44 299 5.0 13.0 0.03 0.03 0.03 87 1012.0
20260508012213 44 301 5.0 17.0 0.02 0.02 0.02 87 1012.0
20260508011503 44 296 9.0 18.0 0.01 0.01 0.01 86 1012.0
20260508011213 44 293 8.0 20.0 0.01 0.01 0.01 84 1011.9
20260508010503 45 309 4.0 20.0 0.00 0.00 0.00 83 1011.8
20260508010003 45 324 2.0 5.0 0.00 0.00 0.00 82 1011.8
20260508005503 45 324 2.0 5.0 0.00 0.00 0.00 81 1011.5
20260508005003 45 324 1.0 4.0 0.00 0.00 0.00 81 1011.5
20260508004503 45 324 1.0 4.0 0.00 0.00 0.00 80 1011.2
20260508004213 45 324 0.0 3.0 0.00 0.00 0.00 80 1011.2
20260508003503 45 324 1.0 4.0 0.00 0.00 0.00 79 1011.0
20260508003004 45 322 2.0 6.0 0.00 0.00 0.00 79 1011.1
20260508002503 45 315 3.0 6.0 0.00 0.00 0.00 79 1011.1
20260508002003 45 324 4.0 13.0 0.00 0.00 0.00 78 1011.1
20260508001503 45 328 7.0 15.0 0.00 0.00 0.00 78 1011.2
20260508001003 46 322 9.0 23.0 0.00 0.00 0.00 77 1011.2
20260508000503 46 318 10.0 23.0 0.00 0.00 0.00 76 1011.2
20260508000003 47 314 11.0 24.0 0.00 0.00 0.00 74 1011.2
20260507235714 47 304 12.0 24.0 0.00 0.00 0.00 72 1011.2
20260507235003 48 286 12.0 24.0 0.00 0.00 0.00 69 1011.0
20260507234503 50 260 9.0 24.0 0.00 0.00 0.00 64 1011.0
20260507234005 50 242 7.0 14.0 0.00 0.00 0.00 58 1010.7
20260507233714 50 240 7.0 14.0 0.00 0.00 0.00 59 1010.7
20260507233003 50 232 8.0 19.0 0.00 0.00 0.00 59 1010.7
20260507232505 50 238 6.0 19.0 0.00 0.00 0.00 59 1010.6
20260507232003 50 257 5.0 10.0 0.00 0.00 0.00 64 1010.6
20260507231503 50 281 5.0 10.0 0.00 0.00 0.00 65 1010.5
20260507231004 50 304 4.0 10.0 0.00 0.00 0.00 65 1010.4
20260507230716 50 317 3.0 10.0 0.00 0.00 0.00 65 1010.4
20260507230003 51 323 2.0 8.0 0.00 0.00 0.00 64 1010.3
20260507225503 51 320 3.0 8.0 0.00 0.00 0.00 63 1010.3
20260507225003 51 316 4.0 8.0 0.00 0.00 0.00 63 1010.3
20260507224504 51 317 3.0 8.0 0.00 0.00 0.00 63 1010.2
20260507224003 51 322 3.0 5.0 0.00 0.00 0.00 62 1010.3
20260507223504 52 322 3.0 5.0 0.00 0.00 0.00 60 1010.3
20260507223003 52 317 4.0 12.0 0.00 0.00 0.00 60 1010.4
20260507222505 52 312 4.0 12.0 0.00 0.00 0.00 62 1010.4
20260507222214 52 313 4.0 13.0 0.00 0.00 0.00 63 1010.5
20260507221715 52 322 4.0 13.0 0.00 0.00 0.00 63 1010.5
20260507221004 52 322 5.0 13.0 0.00 0.00 0.00 62 1010.4
20260507220503 52 322 4.0 13.0 0.00 0.00 0.00 60 1010.4
20260507220003 52 318 4.0 10.0 0.00 0.00 0.00 63 1010.5
20260507215503 52 313 5.0 10.0 0.00 0.00 0.00 60 1010.5
20260507215005 52 320 4.0 10.0 0.00 0.00 0.00 60 1010.6
20260507214503 52 335 3.0 10.0 0.00 0.00 0.00 60 1010.6
20260507214003 52 334 4.0 10.0 0.00 0.00 0.00 60 1010.5
20260507213503 52 339 3.0 10.0 0.00 0.00 0.00 62 1010.5
20260507213003 51 351 2.0 10.0 0.00 0.00 0.00 64 1010.5
20260507212713 51 352 2.0 6.0 0.00 0.00 0.00 64 1010.5
20260507212214 50 352 2.0 8.0 0.00 0.00 0.00 63 1010.5
20260507211504 50 352 3.0 8.0 0.00 0.00 0.00 64 1010.5
20260507211003 50 355 3.0 6.0 0.00 0.00 0.00 64 1010.4
20260507210503 50 360 4.0 12.0 0.00 0.00 0.00 64 1010.5
20260507210003 50 353 5.0 12.0 0.00 0.00 0.00 64 1010.6
20260507205715 50 342 6.0 13.0 0.00 0.00 0.00 63 1010.5
20260507205003 50 331 6.0 13.0 0.00 0.00 0.00 64 1010.6
20260507204503 50 338 6.0 13.0 0.00 0.00 0.00 64 1010.6
20260507204005 50 332 7.0 15.0 0.00 0.00 0.00 65 1010.7
20260507203503 50 321 7.0 17.0 0.00 0.00 0.00 64 1010.6
20260507203003 50 317 8.0 17.0 0.00 0.00 0.00 65 1010.6
20260507202503 50 331 7.0 17.0 0.00 0.00 0.00 64 1010.6
20260507202003 50 338 7.0 15.0 0.00 0.00 0.00 63 1010.5
20260507201503 51 329 8.0 17.0 0.00 0.00 0.00 63 1010.7
20260507201003 51 329 7.0 17.0 0.00 0.00 0.00 60 1010.6
20260507200505 52 329 6.0 14.0 0.00 0.00 0.00 60 1010.6
20260507200003 52 319 5.0 13.0 0.00 0.00 0.00 57 1010.7
20260507195712 52 312 4.0 13.0 0.00 0.00 0.00 58 1010.8
20260507195005 52 309 4.0 10.0 0.00 0.00 0.00 60 1010.8
20260507194505 52 309 5.0 10.0 0.00 0.00 0.00 58 1010.9
20260507194003 52 320 5.0 13.0 0.00 0.00 0.00 58 1010.9
20260507193503 53 326 4.0 13.0 0.00 0.00 0.00 59 1010.9
20260507193213 52 316 3.0 10.0 0.00 0.00 0.00 64 1010.9
20260507192503 52 297 4.0 10.0 0.00 0.00 0.00 60 1011.0
20260507192215 52 299 5.0 13.0 0.00 0.00 0.00 60 1011.0
20260507191714 51 317 6.0 17.0 0.00 0.00 0.00 63 1011.0
20260507191003 50 319 7.0 17.0 0.00 0.00 0.00 64 1011.1
20260507190506 50 322 7.0 17.0 0.00 0.00 0.00 65 1011.2
20260507190005 49 319 8.0 19.0 0.00 0.00 0.00 64 1011.2
20260507185714 49 322 7.0 19.0 0.00 0.00 0.00 64 1011.2
20260507185003 49 328 9.0 18.0 0.00 0.00 0.00 65 1011.3
20260507184503 48 325 9.0 20.0 0.00 0.00 0.00 64 1011.3
20260507184003 48 336 9.0 23.0 0.00 0.00 0.00 65 1011.3
20260507183504 49 339 10.0 23.0 0.00 0.00 0.00 65 1011.3
20260507183003 49 339 10.0 18.0 0.00 0.00 0.00 65 1011.2
20260507182505 50 338 9.0 18.0 0.00 0.00 0.00 64 1011.2
20260507182215 50 339 8.0 18.0 0.00 0.00 0.00 64 1011.1
20260507181504 50 355 5.0 10.0 0.00 0.00 0.00 65 1011.2
20260507181003 50 345 5.0 10.0 0.00 0.00 0.00 64 1011.2
20260507180505 50 337 6.0 12.0 0.00 0.00 0.00 62 1011.2
20260507180003 50 338 6.0 12.0 0.00 0.00 0.00 60 1011.2
20260507175503 51 340 5.0 12.0 0.00 0.00 0.00 60 1011.2
20260507175003 51 342 6.0 15.0 0.00 0.00 0.00 62 1011.2
20260507174503 51 344 6.0 15.0 0.00 0.00 0.00 60 1011.2
20260507174003 52 350 5.0 15.0 0.00 0.00 0.00 58 1011.1
20260507173505 52 349 5.0 12.0 0.00 0.00 0.00 57 1011.1
20260507173212 52 345 5.0 12.0 0.00 0.00 0.00 56 1011.0
20260507172503 52 333 4.0 10.0 0.00 0.00 0.00 56 1011.2
20260507172003 53 325 4.0 10.0 0.00 0.00 0.00 55 1011.3
20260507171505 53 325 4.0 8.0 0.00 0.00 0.00 56 1011.2
20260507171003 53 332 5.0 12.0 0.00 0.00 0.00 54 1011.2
20260507170713 54 338 5.0 17.0 0.00 0.00 0.00 57 1011.2
20260507170005 54 296 7.0 17.0 0.00 0.00 0.00 54 1011.3
20260507165503 54 263 7.0 15.0 0.00 0.00 0.00 54 1011.3
20260507165004 55 265 6.0 19.0 0.00 0.00 0.00 55 1011.3
20260507164503 55 249 6.0 19.0 0.00 0.00 0.00 52 1011.4
20260507164003 55 265 6.0 14.0 0.00 0.00 0.00 53 1011.5
20260507163503 55 287 5.0 13.0 0.00 0.00 0.00 58 1011.5
20260507163004 54 240 5.0 12.0 0.00 0.00 0.00 59 1011.7
20260507162713 54 219 6.0 18.0 0.00 0.00 0.00 56 1011.6
20260507162003 54 257 7.0 18.0 0.00 0.00 0.00 58 1011.8
20260507161506 53 294 6.0 14.0 0.00 0.00 0.00 57 1011.8
20260507161003 53 301 5.0 14.0 0.00 0.00 0.00 54 1011.9
20260507160503 53 279 6.0 13.0 0.00 0.00 0.00 54 1012.0
20260507160005 54 298 5.0 13.0 0.00 0.00 0.00 54 1012.0
20260507155713 53 320 4.0 13.0 0.00 0.00 0.00 56 1012.0
20260507155005 53 317 3.0 10.0 0.00 0.00 0.00 59 1012.1
20260507154503 52 281 6.0 19.0 0.00 0.00 0.00 59 1012.1
20260507154003 52 293 7.0 19.0 0.00 0.00 0.00 56 1012.1
20260507153715 52 298 8.0 19.0 0.00 0.00 0.00 60 1012.1
20260507153004 52 276 8.0 15.0 0.00 0.00 0.00 58 1012.3
20260507152504 52 279 6.0 14.0 0.00 0.00 0.00 64 1012.3
20260507152005 52 286 6.0 13.0 0.00 0.00 0.00 62 1012.2
20260507151503 51 285 4.0 12.0 0.00 0.00 0.00 60 1012.3
20260507151003 51 263 4.0 10.0 0.00 0.00 0.00 64 1012.4
20260507150503 51 256 6.0 13.0 0.00 0.00 0.00 63 1012.3
20260507150003 51 256 6.0 13.0 0.00 0.00 0.00 65 1012.3
20260507145503 51 245 6.0 15.0 0.00 0.00 0.00 66 1012.4
20260507145003 50 245 7.0 18.0 0.00 0.00 0.00 67 1012.4
20260507144504 50 267 6.0 18.0 0.00 0.00 0.00 66 1012.5
20260507144003 50 290 4.0 12.0 0.00 0.00 0.00 67 1012.4
20260507143503 50 245 5.0 12.0 0.00 0.00 0.00 68 1012.5
20260507143003 50 231 5.0 14.0 0.00 0.00 0.00 67 1012.4
20260507142503 50 213 5.0 14.0 0.00 0.00 0.00 68 1012.4
20260507142213 50 182 4.0 10.0 0.00 0.00 0.00 69 1012.5
20260507141503 49 158 3.0 10.0 0.00 0.00 0.00 69 1012.5
20260507141003 48 156 2.0 8.0 0.00 0.01 0.00 71 1012.5
20260507140505 48 143 3.0 8.0 0.00 0.01 0.00 71 1012.6
20260507140006 48 113 3.0 8.0 0.00 0.01 0.00 71 1012.5
20260507135506 47 104 3.0 8.0 0.00 0.02 0.00 72 1012.6
20260507135003 47 112 3.0 8.0 0.00 0.02 0.00 75 1012.7
20260507134714 46 120 3.0 8.0 0.00 0.02 0.00 75 1012.7
20260507134005 46 129 2.0 5.0 0.00 0.02 0.00 78 1012.7
20260507133503 45 126 1.0 6.0 0.00 0.02 0.00 80 1012.8
20260507133003 45 118 2.0 6.0 0.00 0.02 0.00 81 1012.9
20260507132504 44 110 2.0 5.0 0.00 0.02 0.00 82 1012.9
20260507132003 44 107 2.0 8.0 0.00 0.02 0.00 83 1012.9
20260507131504 43 105 4.0 9.0 0.00 0.02 0.00 84 1013.0
20260507131003 42 98 4.0 9.0 0.00 0.02 0.00 86 1013.0
20260507130503 42 89 2.0 9.0 0.00 0.02 0.00 87 1012.9
20260507130213 41 77 2.0 9.0 0.00 0.02 0.00 88 1013.0
20260507125503 40 65 3.0 8.0 0.00 0.02 0.00 91 1012.9
20260507125213 40 62 3.0 8.0 0.00 0.02 0.00 92 1013.0
20260507124503 40 52 3.0 6.0 0.00 0.02 0.00 94 1013.1
20260507124003 40 38 3.0 6.0 0.00 0.03 0.00 95 1013.0
20260507123503 39 25 3.0 5.0 0.00 0.03 0.00 95 1013.1
20260507123213 39 23 3.0 5.0 0.00 0.03 0.00 96 1013.0
20260507122714 40 21 2.0 5.0 0.00 0.03 0.00 98 1013.1
20260507122212 39 20 1.0 5.0 0.00 0.05 0.00 98 1013.1
20260507121503 40 19 1.0 5.0 0.00 0.05 0.00 98 1013.1
20260507121003 40 19 1.0 5.0 0.00 0.05 0.00 98 1013.1
20260507120503 40 18 0.0 4.0 0.00 0.05 0.00 98 1013.2
20260507120005 41 0 0.0 0.0 0.00 0.05 0.00 98 1013.3
20260507115504 41 0 0.0 0.0 0.00 0.05 0.00 98 1013.4
20260507115003 41 18 0.0 0.0 0.00 0.05 0.00 98 1013.3
20260507114503 41 18 1.0 4.0 0.00 0.06 0.00 98 1013.4
20260507114003 41 18 1.0 4.0 0.00 0.06 0.00 98 1013.4
20260507113503 41 18 2.0 5.0 0.00 0.06 0.00 98 1013.5
20260507113004 41 19 2.0 5.0 0.00 0.06 0.00 98 1013.5
20260507112503 40 19 1.0 4.0 0.00 0.07 0.00 98 1013.3
20260507112004 40 19 0.0 1.0 0.00 0.07 0.00 98 1013.2
20260507111503 40 0 0.0 0.0 0.00 0.07 0.00 98 1013.1